Tracking 20232 objects as of 18-Jan-2020
HD Live streaming from Space Station
objects crossing your sky now

INMARSAT 4-F2

Track INMARSAT 4-F2 now!
INMARSAT 4-F2 is classified as:


NORAD ID: 28899
Int'l Code: 2005-044A
Perigee: 35,782.9 km
Apogee: 35,806.5 km
Inclination: 3.0 °
Period: 1,436.1 minutes
Semi major axis: 42165 km
RCS: 4.4668 m2 (large)
Launch date: November 8, 2005
Source: International Mobile Satellite Organization (INMARSAT) (IM)
Launch site: SEA LAUNCH (SEAL)

Nearly the size of a double-decker bus; more than 600 channels.
aabbcc
Your satellite tracking list
Your tracking list is empty




NASA's NSSDC Master Catalog

Two Line Element Set (TLE):
1 28899U 05044A   20017.81618703  .00000006  00000-0  00000+0 0  9998
2 28899   2.9606  28.7174 0002800 281.3538 164.3110  1.00268330 52017
Source of the keplerian elements: AFSPC